Lambertville, MI

2:39 AM EST on February 23, 2018 (GMT -0500)
Lambertville

Weather History for KDUH - April, 2013

Change the Weather History Date:

Wednesday, April 24, 2013

  Actual Average (KTOL) Record (KTOL)
Temperature  
Mean Temperature 46 °F -  
Max Temperature 58 °F 60 °F 88 °F (1925)
Min Temperature 35 °F 40 °F 23 °F (2015)
Degree Days  
Heating Degree Days 18    
Moisture  
Dew Point 38 °F    
Average Humidity 83    
Maximum Humidity 93    
Minimum Humidity 61    
Precipitation  
Precipitation 0.00 in - - ()
Sea Level Pressure  
Sea Level Pressure 29.89 in    
Wind  
Wind Speed 8 mph (WNW)    
Max Wind Speed 13 mph    
Max Gust Speed 22 mph    
Visibility 8 miles    
Events Rain    
Averages and records for this station are not official NWS values.
T = Trace of Precipitation, MM = Missing Value Source: NWS Daily Summary

Daily Weather History Graph

Daily Weather History Graph

Search for Another Location

Airport or City:

Trip Planner

Search our weather history database for the weather conditions in past years. The results will help you decide how hot, cold, wet, or windy it might be!

Date:

Astronomy

Apr. 24, 2013 Rise Set
Actual Time 6:40 AM EDT 8:25 PM EDT
Civil Twilight 6:10 AM EDT 8:55 PM EDT
Nautical Twilight 5:34 AM EDT 9:31 PM EDT
Astronomical Twilight 4:56 AM EDT 10:10 PM EDT
Moon 7:27 PM EDT (4/24) 5:44 AM EDT (4/24)
Length of Visible Light 14h 44m
Length of Day
13h 45m
Waxing Gibbous, 98% of the Moon is Illuminated
Apr 24
Waxing Gibbous
Apr 25
Full
May 2
Last Quarter
May 9
New
May 18
First Quarter

Hourly Weather History & Observations

Time (EDT) Temp. Windchill Dew Point Humidity Pressure Visibility Wind Dir Wind Speed Gust Speed Precip Events Conditions
12:15 AM 56.5 °F - 54.1 °F 92% 29.80 in 4.0 mi SE 6.9 mph - N/A   Overcast
12:35 AM 57.2 °F - 54.1 °F 89% 29.80 in 5.0 mi South 8.1 mph - N/A Rain Rain
12:57 AM 57.2 °F - 53.6 °F 88% 29.79 in 7.0 mi South 6.9 mph - N/A Rain Rain
1:18 AM 57.2 °F - 53.6 °F 88% 29.78 in 7.0 mi South 6.9 mph - N/A Rain Rain
1:24 AM 57.4 °F - 53.1 °F 85% 29.78 in 7.0 mi SSW 4.6 mph - N/A Rain Rain
1:35 AM 57.2 °F - 53.4 °F 87% 29.77 in 5.0 mi SSW 3.5 mph - N/A Rain Rain
1:55 AM 57.0 °F - 53.4 °F 88% 29.76 in 7.0 mi South 5.8 mph - N/A   Light Drizzle
2:15 AM 57.2 °F - 53.2 °F 87% 29.75 in 10.0 mi SSW 5.8 mph - N/A Rain Light Rain
2:35 AM 57.7 °F - 53.1 °F 84% 29.75 in 10.0 mi SW 6.9 mph - N/A   Overcast
2:55 AM 58.1 °F - 52.9 °F 83% 29.74 in 10.0 mi SSW 6.9 mph - N/A   Overcast
3:15 AM 57.7 °F - 53.1 °F 84% 29.74 in 10.0 mi SSW 5.8 mph - N/A   Overcast
3:35 AM 57.6 °F - 52.9 °F 84% 29.73 in 10.0 mi SW 6.9 mph - N/A   Overcast
3:55 AM 57.6 °F - 53.1 °F 85% 29.72 in 10.0 mi SSW 5.8 mph - N/A   Overcast
4:15 AM 57.7 °F - 53.1 °F 84% 29.73 in 10.0 mi SSW 6.9 mph - N/A   Overcast
4:35 AM 51.8 °F - 47.7 °F 86% 29.75 in 10.0 mi NW 4.6 mph - N/A   Light Drizzle
4:55 AM 48.9 °F - 45.7 °F 89% 29.75 in 7.0 mi NW 9.2 mph - N/A Rain Rain
5:15 AM 47.7 °F - 44.6 °F 89% 29.75 in 10.0 mi NW 9.2 mph 17.3 mph N/A   Drizzle
5:35 AM 46.4 °F 41.5 °F 43.3 °F 89% 29.78 in 10.0 mi NW 10.4 mph 18.4 mph N/A   Drizzle
5:55 AM 45.1 °F 39.9 °F 42.1 °F 89% 29.78 in 7.0 mi NNW 10.4 mph - N/A Rain Heavy Rain
6:13 AM 44.2 °F 39.7 °F 41.2 °F 89% 29.78 in 10.0 mi NW 8.1 mph 17.3 mph N/A Rain Light Rain
6:23 AM 43.7 °F 38.1 °F 40.8 °F 90% 29.78 in 10.0 mi NNW 10.4 mph 17.3 mph N/A Rain Light Rain
6:51 AM 42.8 °F 36.2 °F 39.7 °F 89% 29.79 in 10.0 mi North 12.7 mph 17.3 mph N/A Rain Light Rain
7:05 AM 42.6 °F 38.4 °F 39.4 °F 88% 29.80 in 10.0 mi NW 6.9 mph - N/A Rain Light Rain
7:39 AM 41.0 °F 34.3 °F 37.4 °F 87% 29.81 in 5.0 mi NNW 11.5 mph - N/A Rain Heavy Rain
7:45 AM - - - N/A% 29.82 in 5.0 mi NW 5.8 mph - N/A Rain Light Rain
7:51 AM 40.8 °F 35.0 °F 37.8 °F 89% 29.82 in 7.0 mi NNW 9.2 mph - N/A Rain Light Rain
8:12 AM 40.5 °F 34.1 °F 37.6 °F 89% 29.84 in 3.0 mi NW 10.4 mph 17.3 mph N/A Rain Light Rain
8:35 AM 39.7 °F 33.2 °F 37.0 °F 90% 29.82 in 5.0 mi NNW 10.4 mph 17.3 mph N/A Rain Light Rain
8:54 AM 39.9 °F 34.5 °F 37.0 °F 89% 29.82 in 10.0 mi North 8.1 mph - N/A Rain Rain
9:15 AM 39.7 °F 34.3 °F 36.9 °F 89% 29.83 in 10.0 mi NNW 8.1 mph - N/A   Light Drizzle
9:35 AM 38.8 °F 31.6 °F 35.6 °F 88% 29.83 in 10.0 mi NNW 11.5 mph 16.1 mph N/A Rain Light Rain
9:50 AM 38.7 °F 33.6 °F 35.6 °F 89% 29.84 in 4.0 mi NNW 6.9 mph - N/A Rain Rain
10:18 AM 37.4 °F 30.8 °F 35.6 °F 93% 29.82 in 3.0 mi NNW 9.2 mph 18.4 mph N/A Rain Rain
10:39 AM 39.2 °F 35.0 °F 35.6 °F 87% 29.83 in 5.0 mi North 5.8 mph - N/A Rain Rain
10:53 AM 38.5 °F 36.1 °F 35.6 °F 89% 29.85 in 5.0 mi WNW 3.5 mph - N/A Rain Rain
11:14 AM 37.8 °F 31.8 °F 34.9 °F 89% 29.87 in 4.0 mi NW 8.1 mph - N/A Rain Rain
11:31 AM 37.2 °F 30.6 °F 34.3 °F 89% 29.86 in 4.0 mi NNW 9.2 mph - N/A Rain Light Rain
11:58 AM 35.6 °F 29.2 °F 33.8 °F 93% 29.85 in 4.0 mi NW 8.1 mph - N/A   Overcast
12:19 PM 35.6 °F 28.6 °F 33.8 °F 93% 29.85 in 7.0 mi NNW 9.2 mph - N/A Rain Light Rain
12:20 PM - - - N/A% 29.85 in 7.0 mi NNW 10.4 mph - N/A Rain Light Rain
12:37 PM 36.5 °F 31.0 °F 33.8 °F 90% 29.85 in 7.0 mi NW 6.9 mph - N/A Rain Light Rain
12:38 PM 37.4 °F 32.1 °F 33.8 °F 87% 29.85 in 7.0 mi NNW 6.9 mph - N/A Rain Light Rain
12:49 PM 36.7 °F 29.9 °F 33.8 °F 89% 29.87 in 7.0 mi NW 9.2 mph - N/A   Light Drizzle
1:11 PM 37.0 °F 29.8 °F 34.0 °F 89% 29.88 in 2.5 mi NW 10.4 mph - N/A   Light Drizzle
1:33 PM 37.0 °F 28.9 °F 33.8 °F 88% 29.90 in 2.0 mi NW 12.7 mph 19.6 mph N/A Rain Light Rain
1:42 PM 36.7 °F 28.9 °F 33.8 °F 89% 29.90 in 2.5 mi NW 11.5 mph 19.6 mph N/A Rain Light Rain
2:19 PM 37.4 °F 32.8 °F 33.8 °F 87% 29.91 in 4.0 mi NW 5.8 mph - N/A Rain Light Rain
2:38 PM 37.4 °F 30.8 °F 33.8 °F 87% 29.91 in 5.0 mi NW 9.2 mph 16.1 mph N/A Rain Light Rain
2:58 PM 37.4 °F 29.8 °F 33.8 °F 87% 29.92 in 5.0 mi NW 11.5 mph 16.1 mph N/A Rain Light Rain
3:18 PM 37.4 °F 29.3 °F 33.8 °F 87% 29.93 in 7.0 mi NW 12.7 mph 17.3 mph N/A Rain Light Rain
3:38 PM 39.2 °F 32.0 °F 33.8 °F 81% 29.94 in 7.0 mi NW 11.5 mph 17.3 mph N/A Rain Light Rain
3:44 PM - - - N/A% 29.95 in 7.0 mi West 11.5 mph 18.4 mph N/A Rain Rain
3:55 PM 38.7 °F 31.8 °F 35.1 °F 87% 29.95 in 7.0 mi WNW 10.4 mph 20.7 mph N/A Rain Light Rain
4:15 PM 39.2 °F 32.5 °F 35.2 °F 86% 29.96 in 7.0 mi WNW 10.4 mph 17.3 mph N/A Rain Light Rain
4:39 PM 39.2 °F 33.0 °F 35.6 °F 87% 29.98 in 4.0 mi WNW 9.2 mph 18.4 mph N/A Rain Light Rain
4:58 PM 41.0 °F 33.9 °F 35.6 °F 81% 29.98 in 10.0 mi West 12.7 mph 19.6 mph N/A   Light Drizzle
5:18 PM 41.0 °F 34.3 °F 35.6 °F 81% 29.99 in 10.0 mi West 11.5 mph 17.3 mph N/A Rain Light Rain
5:38 PM 41.0 °F 34.7 °F 35.6 °F 81% 29.99 in 7.0 mi West 10.4 mph 19.6 mph N/A   Light Drizzle
5:59 PM 41.0 °F 35.2 °F 35.6 °F 81% 30.00 in 10.0 mi West 9.2 mph 16.1 mph N/A   Overcast
6:20 PM 42.8 °F 37.5 °F 35.6 °F 76% 30.02 in 10.0 mi West 9.2 mph - N/A   Overcast
6:39 PM 42.8 °F 37.5 °F 35.6 °F 76% 30.02 in 10.0 mi West 9.2 mph - N/A   Overcast
6:59 PM 42.8 °F 36.6 °F 32.0 °F 66% 30.03 in 10.0 mi West 11.5 mph 20.7 mph N/A   Overcast
7:20 PM 42.8 °F 36.2 °F 30.2 °F 61% 30.05 in 10.0 mi West 12.7 mph 21.9 mph N/A   Mostly Cloudy
7:37 PM 42.8 °F 36.6 °F 30.2 °F 61% 30.05 in 10.0 mi West 11.5 mph - N/A   Mostly Cloudy
8:00 PM 42.8 °F 36.2 °F - N/A% - 10.0 mi West 12.7 mph 17.3 mph N/A   Mostly Cloudy
8:18 PM 41.0 °F 35.2 °F 30.2 °F 65% 30.07 in 10.0 mi West 9.2 mph - N/A   Scattered Clouds
8:40 PM 41.0 °F 36.4 °F 30.2 °F 65% 30.08 in 10.0 mi West 6.9 mph - N/A   Scattered Clouds
8:57 PM 39.2 °F 35.0 °F 30.2 °F 70% 30.10 in 10.0 mi West 5.8 mph - N/A   Scattered Clouds
9:19 PM 39.2 °F 35.0 °F 28.4 °F 65% 30.11 in 10.0 mi WSW 5.8 mph - N/A   Clear
9:38 PM 39.2 °F 34.2 °F 28.4 °F 65% 30.13 in 10.0 mi WSW 6.9 mph - N/A   Clear
10:01 PM 39.2 °F 33.0 °F 28.4 °F 65% 30.14 in 10.0 mi WSW 9.2 mph - N/A   Clear
10:42 PM 39.2 °F 33.6 °F 26.6 °F 61% 30.15 in 10.0 mi WSW 8.1 mph - N/A   Clear
11:02 PM 37.4 °F 31.4 °F 26.6 °F 65% 30.16 in 10.0 mi WSW 8.1 mph - N/A   Clear
11:19 PM 37.4 °F 32.1 °F 26.6 °F 65% 30.16 in 10.0 mi WSW 6.9 mph - N/A   Clear
11:40 PM 37.4 °F 31.4 °F 26.6 °F 65% 30.17 in 10.0 mi WSW 8.1 mph - N/A   Clear
11:59 PM 37.4 °F 32.1 °F 26.6 °F 65% 30.17 in 10.0 mi WSW 6.9 mph - N/A   Clear